sat.trackr.live / text

‹ back to catalog

GSAT0213 (GALILEO 17)

NORAD 41861 · 2016-069C

PAYLOAD ACTIVE UNKNOWN

§ Identity

Operator
Country
ESA
Launch date
2016-11-17
Launch site
FRGUI
Launch vehicle
Mass (kg)
RCS (m²)
14.17

Purposes: earth_obs, nav

External: N2YO · Heavens-Above · Gunter

§ Orbital elements

Epoch: 2026-09-11T18:44:13.152192Z

Period
844.70 min
Inclination
55.5548°
Eccentricity
0.0002106
Mean motion
1.70474325 rev/d
Perigee alt
23,215.9 km
Apogee alt
23,228.4 km
Semi-major
29,600.3 km
B*
0.0000e+0
RAAN
98.6915°
Arg perigee
331.8261°
Mean anomaly
28.2534°
Rev number
6,099

§ Raw data

GSAT0213 (GALILEO 17)1 41861U 16069C   26254.78070778  .00000014  00000+0  00000+0 0  99982 41861  55.5548  98.6915 0002106 331.8261  28.2534  1.70474325 60996

JSON: /api/v1/satellites/41861 · /tle

For live sub-satellite position, see the globe view (requires WebGL).

§ Visibility from observer

Set your observer location to see the next 7 days of passes ≥ 10°. The values pass through the URL so the page stays shareable.

No JS? Fill the form by hand. The geolocation button needs JavaScript.